Theta_e
290 285 284 283 286 288 288 287 286 286 283 282 282 281 280 280 281 285 284 286 288 283 283 284 285 285 286 288 289 291 292 292 292 292 292 293 295 296 297 297 299 299 299 303 305 306 308 309 310 313 317 318 317 313 311 311 313 318 322 324 325 328 330 331 331 330 330 328 328 329 330 330 331 330 331 332 332 333 333 334 334 334 334 334 334 334
290 283 284 287 287 286 286 287 287 284 284 282 282 280 280 281 279 284 283 286 289 284 282 285 284 284 285 288 289 290 290 289 290 290 291 292 293 294 295 296 297 299 301 303 303 304 304 305 308 310 312 315 316 314 311 311 313 317 321 322 324 326 326 326 329 330 330 330 330 329 329 330 330 329 328 320 315 314 315 318 319 322 324 328 332 333
283 282 286 287 287 285 284 284 285 284 283 282 281 281 280 280 282 284 284 286 286 284 281 284 282 283 285 287 288 288 289 290 291 291 291 291 292 293 294 295 296 297 298 300 300 302 302 304 307 307 309 312 315 316 315 312 313 314 317 319 322 319 321 324 327 329 328 325 323 326 320 319 308 308 310 311 310 311 310 310 311 313 316 316 316 320
280 284 284 284 285 284 283 283 283 283 283 282 281 280 278 282 279 278 280 283 284 283 282 283 281 282 285 287 288 289 289 289 292 292 292 292 291 291 292 293 294 295 296 297 298 299 301 302 303 305 307 310 314 315 316 314 312 312 314 317 318 316 319 322 324 324 316 313 313 313 312 311 310 306 308 309 310 310 310 308 309 310 311 313 313 312
282 285 285 283 285 284 282 282 282 282 281 283 282 281 280 281 281 279 280 282 283 284 284 282 279 280 283 283 285 289 290 290 291 291 291 292 293 293 294 295 295 294 295 295 297 298 299 300 301 303 306 308 310 312 313 313 312 312 311 313 314 312 317 319 319 314 309 308 307 306 305 306 306 308 309 308 305 306 307 307 306 307 308 309 310 311
283 287 285 285 283 284 283 281 282 283 280 282 283 283 283 284 280 280 280 280 278 279 283 281 275 276 283 282 284 287 287 287 289 289 289 291 291 292 292 292 294 295 296 296 296 297 299 300 302 304 307 307 308 309 311 312 312 311 311 310 308 308 311 315 315 311 313 312 309 308 308 308 306 305 307 306 304 305 306 306 306 307 307 307 308 309
284 285 285 283 283 282 282 282 283 283 280 279 281 285 284 283 281 280 279 279 275 274 280 284 275 272 281 280 282 283 283 286 289 288 289 290 291 292 292 293 293 293 294 296 296 297 298 299 301 303 305 305 306 307 309 309 308 309 309 308 307 306 309 309 309 311 312 311 311 313 313 311 307 303 302 303 305 305 305 306 304 305 307 307 306 306
283 284 282 282 282 282 281 281 283 283 281 279 283 283 283 282 281 279 280 279 277 283 282 280 280 274 274 279 284 285 283 284 286 287 289 290 290 291 292 293 293 294 295 295 296 297 297 298 299 301 304 305 305 306 305 305 305 306 306 306 305 306 305 305 306 309 311 310 310 310 309 307 304 302 299 301 302 304 304 304 303 304 305 306 305 305
282 282 282 282 281 281 281 283 285 284 281 281 281 284 282 282 282 281 280 279 279 278 274 278 280 274 274 279 283 284 280 282 283 285 287 289 290 291 292 293 293 294 295 295 295 296 297 298 299 300 303 304 304 304 304 304 304 304 304 304 305 304 305 305 305 307 309 309 308 308 307 304 302 301 300 300 301 301 302 302 303 303 303 304 304 304
281 284 285 284 283 281 284 284 285 284 280 284 283 284 283 283 282 281 279 278 278 275 270 275 279 272 273 279 281 282 281 281 283 286 288 289 290 291 291 292 293 294 295 296 296 296 297 298 299 301 303 302 302 302 303 303 303 303 303 303 303 304 305 305 305 305 307 308 307 305 304 302 300 300 299 300 300 301 303 301 301 301 301 302 302 304
280 286 286 283 282 284 284 284 285 284 284 284 284 282 280 280 279 279 280 279 275 270 271 276 278 276 270 276 279 280 280 283 285 286 288 290 291 291 292 292 293 293 294 294 295 296 297 299 299 300 299 300 300 300 301 301 302 302 302 302 302 302 303 303 304 304 305 305 306 305 302 300 299 299 300 299 300 301 300 300 300 300 300 300 300 301
282 284 282 285 287 284 285 282 285 286 285 284 280 279 278 277 278 275 275 277 270 267 274 277 276 277 269 274 280 284 286 285 285 285 286 288 289 291 292 292 292 293 293 294 294 294 295 296 297 297 298 298 298 298 299 300 301 301 301 302 301 301 302 303 304 304 304 304 303 303 303 301 299 299 299 299 299 300 300 299 298 298 298 298 299 299
278 280 284 284 287 285 283 281 282 282 283 281 279 278 273 270 273 267 272 266 268 267 274 278 278 273 273 277 281 284 284 285 287 287 287 288 289 290 292 293 293 294 293 293 293 293 295 295 296 296 297 297 297 297 298 298 299 300 301 301 300 300 301 302 303 303 303 303 303 302 301 302 301 300 301 300 300 301 300 299 297 297 296 296 296 296
275 281 282 282 284 286 285 278 278 276 280 279 277 275 272 267 266 263 268 270 270 273 277 275 278 272 277 280 284 283 285 287 287 288 289 288 289 290 291 293 293 292 291 292 292 293 294 295 296 296 297 297 297 297 297 297 298 299 299 300 300 299 301 301 302 301 301 302 302 302 301 300 301 301 301 301 300 300 300 300 298 298 297 295 295 295
268 271 276 279 276 286 283 282 281 279 280 279 281 277 274 272 268 263 267 264 266 270 275 276 273 268 273 275 285 285 287 288 289 289 289 290 290 290 291 291 289 290 290 291 292 293 294 295 295 296 296 296 296 296 296 296 297 298 298 299 299 298 299 300 300 300 300 300 300 301 301 300 299 298 298 298 298 298 298 298 297 296 297 297 297 296
272 272 277 282 280 284 281 285 285 282 280 281 282 281 276 273 278 268 271 270 269 269 269 271 271 276 278 285 284 286 285 285 288 288 289 289 290 290 289 290 290 290 291 291 291 292 294 295 295 295 295 295 295 295 296 296 296 296 297 297 298 298 298 299 299 299 299 299 299 299 298 298 297 296 295 294 294 295 295 295 295 295 295 294 295 295
273 270 276 277 281 281 283 284 284 285 270 278 279 273 276 282 278 273 273 274 271 270 266 275 274 277 282 282 284 285 284 284 285 287 287 288 289 290 289 289 290 290 291 291 292 292 293 294 294 295 294 294 294 294 294 295 296 296 296 295 295 295 296 297 297 297 297 297 297 297 297 296 296 295 294 292 292 292 293 293 292 292 293 293 294 294
268 270 276 275 274 280 282 282 282 283 283 279 273 276 282 282 280 274 266 270 269 265 266 273 269 272 274 269 283 282 281 282 284 285 286 287 287 287 288 289 290 291 291 291 292 293 293 294 294 294 294 294 293 293 293 293 294 295 295 295 294 294 294 294 295 295 296 295 295 295 295 295 295 294 294 293 292 292 291 291 292 292 291 291 292 292
273 265 273 275 277 278 280 279 278 282 284 278 276 284 274 268 268 272 271 263 263 263 265 270 272 273 274 273 280 279 281 282 283 284 284 285 286 287 288 288 289 290 290 290 291 291 292 293 293 293 293 293 293 293 293 293 293 293 293 294 294 293 294 294 294 294 294 295 295 295 294 294 294 294 294 293 293 293 292 291 290 290 290 291 291 291
273 265 267 274 275 277 276 276 268 274 280 282 282 278 280 276 271 269 271 271 270 263 266 265 271 268 276 277 280 280 281 282 283 284 284 285 286 286 288 289 288 289 289 289 290 291 291 292 293 293 292 292 292 292 292 292 292 292 292 292 292 292 292 292 292 293 292 293 293 293 293 293 293 293 293 293 293 292 291 291 290 290 289 290 290 290
267 274 262 272 272 274 268 274 270 273 269 273 274 272 275 274 276 274 273 270 267 265 266 265 265 270 278 280 280 281 282 283 282 281 282 283 285 286 286 286 287 288 289 289 290 290 291 291 292 292 293 292 292 292 292 292 292 292 292 291 291 291 291 291 291 292 291 291 291 291 291 291 291 291 291 291 291 291 290 290 291 290 290 290 289 290
269 269 264 268 269 269 270 275 272 273 272 271 271 269 272 270 267 265 264 274 270 267 263 266 263 272 278 279 280 281 280 280 281 281 281 282 283 284 285 286 286 287 288 289 290 290 290 291 291 291 291 291 291 290 290 291 291 291 291 291 291 291 290 290 290 290 290 290 290 290 289 289 290 290 290 290 290 290 290 290 290 290 290 289 289 290
272 269 267 263 266 267 271 274 275 275 275 272 272 269 273 272 271 266 261 265 270 269 271 269 266 268 278 278 280 279 280 280 281 281 280 281 282 284 285 286 286 288 288 289 289 289 290 290 290 290 290 290 290 289 289 289 290 290 290 290 290 290 289 289 289 289 289 289 288 288 288 288 288 288 288 289 289 288 288 289 289 289 289 289 289 290
273 263 263 265 269 270 272 273 274 274 272 270 272 272 271 269 270 267 266 267 264 265 266 266 264 268 278 279 279 280 281 282 282 282 280 280 282 283 284 285 286 286 287 288 288 289 289 289 289 289 288 288 288 288 288 289 289 289 289 289 289 288 288 288 287 288 288 287 287 287 287 287 287 287 287 287 287 287 288 288 288 288 289 289 289 289
264 266 262 257 260 262 266 269 269 271 270 269 269 271 270 270 270 269 270 269 264 264 266 265 259 267 277 280 280 280 281 280 281 281 281 280 281 282 283 284 285 286 286 286 286 287 287 288 288 288 288 288 288 288 288 287 287 287 287 288 287 286 287 286 287 286 286 286 286 286 286 286 286 286 286 285 286 286 286 287 287 288 288 288 288 289
265 264 264 257 255 253 253 256 258 262 265 268 268 268 269 268 267 266 262 265 262 266 268 264 264 271 276 279 279 280 280 279 280 280 280 281 280 280 282 283 283 284 284 284 285 286 286 287 288 288 288 287 287 287 287 287 287 287 287 286 286 285 285 285 286 286 285 285 285 285 284 285 285 285 285 285 285 285 285 285 286 286 287 287 288 288
265 266 265 262 260 258 261 263 267 267 265 262 264 267 266 268 269 268 267 264 261 265 265 266 268 268 270 273 276 277 278 277 278 278 278 278 279 280 281 281 282 282 282 283 283 285 286 286 286 287 287 287 286 286 286 286 286 286 286 285 284 284 284 285 285 285 285 285 284 284 284 284 284 284 284 284 284 284 284 284 285 285 285 286 287 287
264 262 263 263 262 263 264 263 265 266 263 264 264 264 267 267 268 266 263 261 267 264 259 267 269 267 269 273 274 275 276 277 277 277 276 277 278 278 279 280 280 281 281 282 283 284 285 286 286 286 286 286 286 286 285 285 285 284 284 282 282 282 282 283 283 283 283 283 283 283 282 283 283 283 283 283 283 283 284 284 284 284 285 285 285 286
262 260 261 262 261 263 264 264 265 264 263 263 264 264 264 266 267 264 264 266 266 262 260 266 267 266 270 272 274 275 275 275 274 274 275 276 277 278 278 278 279 279 280 281 282 283 284 284 285 285 285 285 285 284 284 283 283 282 281 281 281 281 281 281 281 281 281 280 281 281 281 281 282 282 282 282 282 282 282 283 283 284 284 284 285 285
264 261 261 262 260 261 263 263 264 263 263 263 263 264 265 265 265 266 265 266 266 265 266 266 267 267 270 272 272 271 273 274 273 274 275 275 274 275 275 275 276 276 277 277 278 280 281 283 283 283 284 283 283 283 283 282 282 281 281 280 280 280 280 280 280 280 279 279 279 281 281 281 281 281 282 282 282 282 282 282 282 283 283 283 284 284
264 260 264 262 260 260 262 264 264 263 263 261 263 264 265 265 265 265 266 266 267 266 268 268 267 267 272 273 271 272 272 272 271 270 271 272 272 272 272 272 273 273 273 273 274 274 275 278 279 281 282 282 283 283 282 282 281 281 280 279 279 278 279 279 278 278 277 277 279 280 280 280 280 281 280 281 281 281 281 281 282 282 282 282 282 282
264 261 263 261 257 257 260 261 262 262 262 261 261 262 263 263 261 263 263 266 265 264 266 267 266 267 270 271 271 269 269 268 267 267 268 269 270 270 269 269 269 270 270 270 271 272 271 272 273 274 276 279 283 283 282 282 281 280 279 278 278 277 277 277 277 277 277 277 278 279 279 280 280 279 279 280 280 280 280 281 281 281 281 281 281 282
263 261 259 259 256 255 259 261 260 260 259 256 257 261 263 264 264 265 266 267 267 267 264 263 265 266 266 270 267 266 265 265 265 265 265 266 268 268 267 267 267 268 268 268 268 269 269 270 271 272 274 275 277 282 283 283 281 279 278 278 278 277 276 276 276 275 275 276 277 277 278 279 279 278 278 278 279 279 280 280 281 280 280 280 281 281
263 261 259 261 254 255 258 259 259 256 250 252 263 266 266 263 264 263 264 264 262 262 264 265 264 264 264 266 266 263 263 264 264 265 266 265 265 266 267 267 267 267 267 267 267 267 268 268 269 270 272 274 275 282 284 283 281 279 279 278 277 276 276 275 275 275 275 275 275 276 277 277 278 277 277 278 278 278 279 279 279 279 280 280 280 280
261 261 259 260 256 254 258 257 254 249 251 261 266 267 266 265 266 265 261 258 259 260 260 262 262 261 262 262 263 265 265 264 264 264 264 265 265 264 265 265 265 266 266 266 266 266 266 267 268 269 270 271 273 280 282 281 279 278 277 276 275 275 274 274 274 274 274 274 274 274 275 275 276 276 276 277 277 278 277 277 277 278 278 279 279 280
260 259 259 258 258 258 256 255 247 250 259 263 265 262 263 265 262 263 259 256 256 257 257 257 259 260 259 260 261 262 263 265 266 263 263 263 264 263 263 263 264 264 264 266 265 265 265 265 266 266 268 270 271 275 279 278 278 276 275 275 274 273 273 273 273 273 272 272 272 273 273 274 274 275 275 275 276 276 276 276 276 276 277 278 279 279
263 261 260 256 260 252 255 254 253 259 258 260 261 258 256 256 256 257 258 256 252 255 256 256 257 258 257 258 258 260 262 263 265 263 262 262 262 263 262 262 263 263 264 264 266 265 265 265 265 265 267 268 269 270 272 274 275 274 273 273 272 272 271 271 271 271 271 271 271 272 272 273 273 273 274 275 275 275 275 275 275 275 276 277 277 278
265 259 261 257 256 258 254 253 253 253 250 256 256 258 258 257 256 256 256 257 252 254 255 255 255 256 255 256 257 258 261 262 264 261 261 261 262 262 262 262 263 263 263 263 264 265 265 265 264 264 264 265 267 268 269 271 272 271 270 269 269 269 268 268 268 269 269 270 270 271 271 272 272 272 272 273 273 273 273 274 275 274 275 275 276 276
264 264 262 259 256 257 255 252 252 250 253 256 255 255 257 257 257 257 256 256 251 252 253 255 253 255 254 254 255 258 260 263 260 257 259 260 261 261 260 261 261 261 261 261 262 262 264 264 263 263 263 263 263 265 267 269 269 268 267 267 266 266 266 266 266 267 268 269 269 270 270 271 271 271 271 271 271 271 271 272 273 273 274 274 276 276
259 260 260 257 255 256 255 253 252 255 254 253 254 254 256 257 256 257 252 254 249 251 252 254 253 253 254 254 255 256 255 256 254 256 259 259 260 261 260 259 259 260 260 260 261 262 263 264 262 261 261 260 261 263 265 267 267 266 265 265 265 264 264 264 265 267 267 268 269 269 269 269 269 270 269 270 270 271 271 272 272 272 273 273 275 275
256 256 257 255 256 257 256 255 257 254 254 253 253 254 256 258 257 253 252 252 249 250 253 254 253 253 253 253 254 252 254 255 256 258 259 259 259 259 260 259 259 259 259 259 259 262 261 262 262 260 260 260 260 261 263 264 264 263 263 263 262 262 262 264 265 266 267 267 268 268 268 268 268 268 268 269 269 270 270 271 271 271 271 272 273 274
254 254 256 256 255 254 255 253 255 254 250 250 253 255 256 255 253 254 249 247 249 251 254 254 253 253 253 252 253 253 254 256 257 258 257 257 257 258 258 258 258 258 259 259 259 259 259 260 261 260 260 260 259 260 261 262 262 261 261 261 260 261 262 263 264 265 266 266 266 266 266 267 267 267 267 267 269 269 269 270 270 270 271 272 272 273
254 251 253 253 254 253 254 252 252 251 250 251 252 254 253 254 251 248 250 252 254 253 253 253 253 253 252 251 253 253 254 255 256 255 256 256 256 257 257 256 256 256 256 257 257 258 258 258 258 259 259 259 259 259 259 260 260 260 260 259 259 261 261 262 263 264 264 264 264 265 265 265 265 265 266 266 267 268 268 269 269 269 270 271 272 272
254 252 253 253 254 251 251 251 251 250 249 252 252 250 250 250 251 252 251 251 253 253 253 252 253 253 252 251 252 253 254 254 254 255 255 255 256 256 257 256 256 256 256 257 257 257 258 257 257 258 258 258 258 258 258 258 258 258 258 257 259 259 260 261 262 263 263 263 263 263 264 264 265 265 265 265 266 267 267 267 268 269 269 270 271 272
252 252 252 252 255 252 251 251 250 251 251 252 252 251 251 252 253 252 252 251 251 252 253 251 252 252 252 252 252 253 253 253 253 254 254 254 254 255 255 255 255 255 255 255 255 256 257 256 256 257 257 258 258 258 257 257 256 256 256 257 258 258 259 260 261 262 262 262 263 263 263 264 264 264 264 265 265 265 266 266 267 268 269 269 270 270
247 250 250 249 251 251 251 252 252 252 251 251 252 252 251 252 253 253 252 251 252 252 252 251 251 251 251 252 251 252 253 253 252 253 253 254 254 254 255 255 255 255 255 255 255 255 256 256 256 256 256 257 257 257 257 256 256 255 256 257 257 258 258 259 259 260 261 261 262 262 262 263 263 263 264 264 265 265 266 266 266 266 267 268 269 269
249 250 249 249 251 251 249 250 250 250 251 251 251 252 252 252 252 252 252 252 252 252 252 252 251 251 251 251 251 251 251 252 252 252 253 253 253 253 253 253 253 254 254 254 254 254 255 255 254 255 255 255 256 256 256 256 256 256 256 256 257 257 257 258 258 259 260 260 261 262 262 262 262 263 263 264 264 265 266 267 267 267 267 268 268 269
249 250 249 249 246 250 250 249 249 251 252 252 252 251 250 250 251 252 252 252 252 252 251 251 251 251 251 250 251 251 251 252 251 251 251 252 252 252 252 252 252 253 254 254 254 254 254 254 254 254 254 254 255 256 256 255 255 255 255 256 256 256 256 257 257 258 259 260 261 261 261 261 261 261 263 263 263 264 265 266 267 267 267 267 267 268
247 248 247 248 246 249 248 250 249 251 251 251 251 251 251 251 250 250 251 251 251 251 250 251 251 250 250 250 251 250 250 251 251 251 250 251 251 252 251 252 252 253 253 253 253 253 253 253 253 253 253 254 255 255 255 255 255 255 255 255 255 256 255 256 256 258 258 259 260 260 260 261 261 262 262 263 263 264 265 264 265 267 267 268 269 268
248 248 248 248 247 249 248 247 247 246 248 250 252 251 250 251 250 250 250 250 250 250 249 249 249 250 250 250 250 250 249 250 250 250 250 250 250 251 251 251 252 252 252 253 253 253 253 253 253 253 253 253 254 254 254 254 254 254 255 255 255 255 254 255 256 257 258 258 259 260 260 261 261 261 261 262 263 263 264 265 266 268 267 267 268 269
246 245 247 248 248 248 247 247 249 248 247 248 250 250 250 251 250 249 248 249 249 249 249 249 248 248 249 250 250 250 249 249 249 250 249 249 250 250 250 250 251 251 252 252 252 252 252 252 253 253 252 253 253 254 254 253 254 254 254 254 254 254 254 255 255 257 257 257 258 258 259 260 260 261 261 262 262 262 262 263 264 266 267 267 266 269
Wind_Speed
2 4 3 5 6 4 6 9 9 4 3 1 3 7 9 9 11 1 2 5 3 8 15 17 17 18 16 14 17 12 10 14 14 14 14 13 12 12 12 13 12 12 14 9 7 8 7 7 6 7 6 7 6 5 5 6 6 6 6 6 9 10 8 7 9 8 8 8 9 10 9 10 8 8 7 7 6 6 4 6 8 9 8 10 11 11
2 3 8 10 5 1 5 6 4 1 1 3 5 6 9 9 10 5 6 3 4 5 10 7 11 17 15 12 15 13 11 16 16 16 16 16 15 14 15 17 17 13 9 9 10 8 9 8 7 7 7 8 9 8 7 8 8 7 7 9 8 7 9 8 8 8 8 7 8 7 7 7 5 4 6 3 6 5 5 6 5 4 3 3 5 9
2 6 5 3 2 2 1 3 4 6 5 4 7 6 7 8 9 11 10 8 5 5 14 12 14 17 14 12 13 13 14 13 13 16 17 16 16 14 13 14 14 14 14 11 12 9 9 9 9 8 8 8 10 11 10 9 7 7 7 7 7 7 7 9 7 7 6 4 2 3 3 6 5 6 6 7 5 4 6 6 5 6 5 4 4 5
4 2 2 5 3 5 3 4 4 4 5 6 6 7 10 3 1 4 4 1 2 7 6 2 12 14 15 14 18 18 16 16 16 18 17 15 17 16 15 13 12 14 14 14 13 13 10 9 9 8 8 9 9 9 9 7 8 6 7 7 8 8 7 7 9 6 3 6 6 7 6 7 6 7 4 7 6 6 7 7 6 6 6 6 5 5
7 4 1 2 4 5 4 6 7 5 6 8 9 10 11 7 6 7 3 1 2 9 9 12 12 16 13 9 9 12 15 16 13 13 16 17 15 15 12 9 10 14 14 14 15 13 12 9 10 10 9 9 9 9 9 8 8 6 8 8 8 9 10 8 9 7 8 8 7 7 8 10 9 5 5 5 5 6 6 6 7 6 5 5 5 6
11 7 3 3 2 4 4 5 9 6 7 6 14 15 13 8 2 4 4 6 5 8 8 9 7 10 5 8 10 6 3 11 11 12 16 14 13 12 13 15 13 14 14 15 16 16 14 13 10 9 7 8 9 9 9 8 8 8 7 6 5 6 6 9 10 12 11 11 12 11 10 8 6 6 5 6 6 3 5 6 5 5 5 5 5 5
4 2 6 10 7 7 8 9 4 7 8 9 6 12 13 13 6 3 6 3 5 8 4 6 5 14 10 4 6 4 4 12 6 11 14 10 11 10 11 12 12 14 14 15 16 15 14 13 10 9 8 9 9 9 5 5 7 7 6 6 6 6 6 7 10 12 11 11 10 12 9 11 11 10 3 4 4 6 5 6 6 6 5 4 5 6
5 4 4 5 8 9 8 9 8 10 8 10 5 6 6 8 9 9 9 10 9 3 1 2 6 11 16 15 8 6 9 11 11 14 13 7 9 10 12 12 12 11 11 12 13 15 15 13 12 12 8 8 8 6 3 4 4 7 7 7 7 6 5 6 8 11 12 13 11 10 8 6 7 6 8 6 5 5 5 6 5 5 5 5 5 4
5 4 6 9 8 8 9 8 8 13 8 3 4 1 3 5 7 7 7 8 8 7 10 7 7 8 11 12 5 11 10 6 13 14 14 11 12 13 11 10 11 13 12 12 11 13 14 14 14 12 9 6 6 5 6 5 5 5 5 6 6 6 6 6 5 6 8 12 13 12 8 9 5 7 7 6 5 5 4 6 5 5 5 6 6 6
2 3 4 5 5 8 5 3 8 11 10 3 7 6 3 4 3 5 7 7 7 6 13 10 11 10 16 15 3 6 8 8 10 12 13 15 14 9 11 12 12 11 10 11 13 13 13 13 11 7 4 4 5 5 5 5 5 5 6 7 7 7 6 5 7 5 4 6 11 13 13 13 8 7 7 7 7 5 5 7 5 4 4 4 5 5
0 1 1 2 7 4 2 2 7 12 6 8 5 2 2 2 3 2 4 5 4 13 16 17 18 15 14 11 7 5 6 8 10 10 11 10 7 11 13 13 10 10 10 9 11 12 12 8 6 5 7 7 6 5 6 6 6 6 7 8 9 6 5 5 5 5 6 5 3 10 18 19 17 9 10 10 7 7 6 6 6 5 4 4 4 4
6 9 3 5 8 1 0 2 4 8 3 4 1 2 3 6 5 4 4 7 10 15 14 22 16 18 17 9 9 7 3 7 8 13 11 10 12 13 10 9 10 11 10 9 8 9 10 6 6 6 8 8 8 8 8 7 7 7 7 8 9 8 7 6 5 6 4 3 4 4 5 15 20 20 14 15 13 9 9 7 7 5 5 4 4 4
9 13 12 5 4 10 7 9 7 4 5 6 4 3 8 8 4 6 6 8 14 14 10 11 11 12 22 17 21 14 7 6 12 8 12 12 13 12 7 8 8 9 8 7 8 8 8 9 8 9 10 9 9 9 10 9 8 8 8 10 10 9 8 7 7 7 5 4 5 3 2 3 8 14 16 17 16 10 9 8 8 6 5 4 5 4
7 9 10 11 4 10 12 11 9 4 10 11 10 10 10 11 12 15 11 8 9 11 12 11 5 13 4 13 24 27 26 18 19 17 14 17 14 12 12 8 5 3 6 6 7 7 8 8 8 8 9 9 8 9 9 9 9 8 8 10 10 10 9 9 9 8 8 7 6 7 4 3 4 5 6 5 9 11 9 7 10 9 8 6 6 5
10 8 6 9 4 8 14 15 13 10 10 14 11 12 14 10 6 11 9 11 11 8 2 4 5 6 10 7 18 25 13 14 19 21 19 12 14 16 12 3 5 5 5 6 6 6 7 7 7 6 6 6 7 9 8 7 7 7 7 8 10 10 9 10 10 9 10 8 8 8 7 6 5 6 7 7 6 6 6 5 8 8 6 7 5 5
14 13 3 2 6 2 11 14 13 11 13 11 10 9 13 18 12 17 8 10 4 6 6 6 7 5 6 7 6 8 1 3 5 16 15 15 13 12 13 12 11 8 5 4 5 6 7 7 7 7 6 5 5 7 5 7 6 6 5 5 6 9 10 9 9 9 9 10 9 9 9 8 8 7 8 8 7 7 7 7 7 7 7 6 6 5
4 8 6 8 3 2 8 2 6 9 10 6 12 14 15 5 10 15 14 15 6 8 14 5 13 13 7 13 15 10 8 9 10 9 10 12 13 11 11 14 14 9 6 5 6 7 8 7 8 8 8 7 6 6 6 6 6 6 7 7 8 7 8 9 9 9 9 10 11 10 10 10 10 9 9 8 9 10 8 8 7 7 7 7 6 5
6 9 8 12 14 10 4 8 11 11 7 8 8 8 5 2 3 8 16 11 14 16 15 11 22 17 14 13 10 21 27 21 9 7 7 8 7 9 10 12 12 7 5 6 6 7 7 8 8 8 7 8 9 8 7 7 6 6 6 8 9 8 9 8 9 9 10 11 11 11 11 10 10 10 11 10 10 8 9 8 8 7 7 6 5 5
7 8 6 8 11 13 4 7 10 13 13 12 15 3 3 4 10 9 7 15 13 16 12 13 22 20 18 18 13 10 10 13 7 5 7 8 11 11 11 11 11 6 4 4 5 5 6 7 9 9 9 9 9 9 9 8 7 7 7 8 9 10 9 9 7 8 8 8 8 8 10 11 10 10 9 9 9 9 9 9 7 8 7 6 5 5
5 5 7 3 7 1 5 4 9 8 9 10 3 7 6 8 11 11 8 7 10 18 13 17 15 16 12 16 18 20 20 19 18 17 7 10 15 16 10 5 6 5 5 5 5 6 6 7 8 9 10 11 11 10 9 10 8 9 8 9 9 9 9 9 9 8 9 7 8 9 9 9 9 9 9 9 8 8 9 9 8 8 7 6 5 5
1 5 10 2 2 8 6 4 5 1 2 5 4 6 6 7 3 8 6 8 7 12 13 15 15 12 9 3 7 15 17 13 8 7 7 9 10 11 8 7 6 5 6 6 6 6 7 7 7 8 8 8 8 8 8 9 10 10 9 9 9 12 11 10 8 9 8 8 8 9 9 9 9 9 8 9 9 10 9 8 7 7 7 6 6 5
3 5 16 10 10 13 12 2 4 4 2 4 7 8 7 9 7 9 12 8 7 10 9 11 14 9 3 4 5 7 7 7 7 7 8 8 9 10 10 8 8 6 6 7 7 7 7 7 7 7 6 7 8 8 9 8 9 10 10 10 9 9 8 10 8 8 8 7 8 9 9 9 8 8 8 10 9 9 8 7 7 7 7 7 6 6
3 4 5 9 11 13 10 9 6 10 8 5 6 10 7 8 7 7 11 7 7 9 9 13 14 10 2 3 5 7 7 8 7 7 8 8 9 10 9 8 7 8 6 6 6 7 7 7 7 7 8 8 8 8 9 8 8 9 10 10 8 9 8 7 8 7 7 8 8 9 9 9 8 8 9 10 8 9 8 7 7 5 6 6 6 5
8 2 8 10 9 9 9 11 8 7 3 7 8 8 8 8 7 4 4 6 6 6 9 8 12 5 3 1 5 5 7 8 8 9 6 6 9 10 11 9 7 7 6 4 3 3 4 5 6 7 8 8 7 8 8 8 7 7 7 8 8 9 9 8 7 7 7 8 9 9 9 9 8 9 8 9 7 9 7 7 6 6 6 6 5 6
6 5 3 2 9 8 8 6 4 3 3 3 3 3 4 7 6 6 8 5 7 6 11 11 13 6 1 3 1 3 6 8 9 9 8 7 9 9 10 9 7 6 5 2 3 2 3 3 5 7 7 7 7 6 7 7 7 8 7 7 7 8 7 7 6 7 7 9 10 9 9 9 8 9 9 9 8 8 8 7 6 6 6 6 6 6
1 7 9 9 9 11 10 11 9 7 4 6 6 7 7 6 10 9 6 6 9 5 13 13 13 11 12 15 14 9 10 10 8 6 7 6 7 9 8 8 7 5 3 1 2 4 5 5 6 7 6 5 5 6 6 6 7 7 7 7 6 7 7 7 6 7 8 7 9 9 9 8 8 9 9 9 8 8 7 6 6 6 6 6 6 6
2 5 7 9 10 12 12 10 9 11 11 10 14 16 15 12 10 9 10 11 11 10 12 12 11 11 14 16 10 11 11 13 15 15 12 9 9 8 6 5 5 4 3 3 2 2 4 6 7 7 6 4 5 5 5 6 6 6 7 7 6 6 6 6 7 7 8 8 8 8 8 8 8 7 7 7 7 6 6 7 6 6 6 5 6 6
3 8 9 11 13 13 13 14 13 12 13 14 15 19 21 18 12 13 11 12 10 10 11 8 5 8 9 13 14 13 13 13 11 10 13 12 11 10 7 5 5 5 5 5 4 2 4 5 6 7 6 5 4 5 5 6 6 6 6 6 6 6 6 5 6 7 8 8 8 8 8 7 7 7 7 7 6 6 6 6 6 6 6 6 6 6
5 10 8 7 12 14 13 13 11 9 10 12 17 18 20 20 17 14 12 11 12 11 10 11 14 15 14 14 17 11 9 9 9 10 11 11 12 13 14 14 13 13 12 9 6 4 3 4 5 6 6 5 5 6 6 6 7 7 7 7 6 6 6 5 7 8 8 7 8 7 7 7 6 6 7 7 7 7 7 7 6 6 5 5 6 5
4 12 10 10 14 15 13 12 11 13 12 12 15 17 18 20 20 18 15 13 13 14 12 13 15 17 16 13 9 8 8 8 8 9 11 15 16 15 15 15 16 16 15 15 14 12 8 8 7 6 7 7 6 6 6 6 6 6 6 6 6 6 5 6 7 8 8 8 7 7 7 7 7 6 6 7 7 6 6 6 5 5 6 6 5 5
6 11 11 7 11 12 10 12 13 13 13 15 16 17 16 16 16 17 16 14 15 15 14 15 17 17 5 9 7 9 9 8 12 15 14 14 16 16 15 15 15 15 16 16 15 15 15 13 11 8 7 6 7 6 6 6 7 7 7 6 6 6 5 6 8 8 9 9 7 7 7 7 7 7 7 6 6 6 6 5 5 5 5 5 5 5
3 11 3 7 13 14 11 13 16 16 16 16 17 18 17 16 16 13 12 10 13 15 16 16 14 11 4 11 7 10 12 14 14 14 14 13 15 15 15 15 15 15 16 16 15 15 16 15 14 13 11 8 5 7 7 7 6 7 7 6 6 6 6 7 8 9 10 9 8 7 7 7 7 8 7 7 6 5 5 4 5 5 5 5 5 4
9 9 9 9 12 13 12 10 13 13 13 17 17 15 19 19 17 18 17 17 16 7 11 12 9 7 9 9 8 10 11 12 13 14 14 15 14 14 14 14 14 15 15 15 16 16 15 14 13 13 12 10 9 4 7 8 8 7 6 7 6 6 6 7 8 9 10 9 8 8 7 7 7 7 7 6 6 5 4 5 5 5 5 6 4 4
10 11 10 9 11 12 9 7 7 7 14 13 3 7 12 15 17 20 16 5 7 6 3 6 5 8 11 11 10 8 11 12 11 12 13 12 12 13 14 14 14 15 15 15 15 15 15 13 12 12 12 11 10 6 6 8 8 7 6 6 6 7 7 8 9 9 9 8 8 8 7 7 7 7 7 6 6 6 6 7 7 6 5 4 4 5
10 10 11 8 10 12 9 7 11 15 15 6 10 11 8 10 10 12 6 9 8 10 10 7 9 10 11 10 10 8 9 10 11 14 16 16 15 14 14 15 16 16 16 16 17 17 16 15 15 15 14 13 12 6 8 8 8 7 6 6 7 7 8 9 9 10 9 9 8 8 7 7 7 7 6 6 6 7 8 8 7 7 6 5 5 5
11 10 9 10 9 9 10 9 10 11 3 6 5 8 9 1 9 3 4 7 10 10 9 7 10 11 12 13 12 11 10 8 7 13 15 16 16 15 15 14 16 16 17 16 16 16 16 16 15 15 14 12 12 9 8 7 6 7 8 7 8 8 9 9 10 10 9 9 8 8 8 7 7 7 7 6 7 7 8 7 7 7 6 5 5 5
13 11 8 9 8 10 9 11 14 10 13 12 13 4 7 5 7 4 5 3 7 9 11 10 12 12 14 13 14 13 13 9 6 5 14 16 17 15 15 15 16 16 16 16 15 15 15 15 14 15 13 12 12 12 10 8 7 7 8 9 9 10 10 11 11 10 9 9 8 8 8 8 7 7 7 7 7 7 7 7 6 6 5 5 5 5
9 9 7 9 8 11 10 10 9 9 9 5 10 7 6 5 6 5 3 1 6 10 10 11 11 13 15 15 16 17 14 4 8 2 14 17 16 16 16 15 15 16 16 16 16 14 15 15 14 15 13 13 13 13 11 10 8 8 10 10 10 10 11 12 11 9 9 9 8 8 8 8 8 8 8 8 8 8 7 7 6 6 6 5 5 5
4 10 10 8 8 6 9 9 8 9 6 6 7 10 9 8 5 6 1 6 6 10 11 11 10 11 12 14 17 16 7 7 2 6 12 16 16 15 15 15 15 14 15 16 16 17 14 14 14 14 14 14 15 15 13 11 10 10 11 10 10 10 11 11 10 10 9 9 8 8 7 7 8 8 8 8 7 7 7 7 6 6 5 5 4 4
3 1 3 7 10 10 10 8 10 4 1 5 9 11 12 8 5 4 4 4 6 10 10 10 10 11 11 11 12 9 9 3 7 9 14 15 14 13 14 15 15 16 15 16 16 16 14 13 14 16 16 16 15 14 14 11 10 12 11 10 10 11 11 10 9 8 7 7 7 7 7 7 7 7 7 7 6 6 5 4 4 5 4 4 4 4
2 2 1 5 4 7 8 8 7 2 3 6 9 15 12 11 5 4 9 3 6 9 10 9 9 9 10 10 9 6 7 7 9 11 12 13 14 13 13 13 13 13 14 15 15 17 14 12 12 13 14 12 13 13 12 10 10 11 10 10 11 12 11 9 8 7 6 6 6 7 7 6 7 7 7 6 5 4 5 5 4 4 4 4 4 4
1 1 2 1 3 4 4 3 5 2 2 8 12 11 10 4 6 5 4 6 8 10 10 9 9 8 9 8 8 7 9 11 12 11 12 12 12 12 13 14 14 14 12 12 15 16 14 13 13 13 13 13 13 12 11 10 10 10 10 11 13 11 9 8 7 7 6 6 6 6 6 7 6 5 5 5 4 4 4 5 5 5 5 4 4 6
1 1 3 1 2 1 2 3 5 5 3 9 17 5 7 2 4 1 6 6 4 8 11 10 8 8 10 9 9 10 11 12 11 12 13 12 12 13 14 15 15 15 16 17 17 17 15 13 13 13 13 12 13 12 12 12 12 11 11 13 13 10 9 8 7 7 6 6 6 6 6 6 7 5 4 4 5 5 6 5 6 6 6 6 5 6
3 1 1 1 1 2 2 3 2 2 4 10 9 3 4 3 4 5 6 6 6 6 8 9 8 9 10 10 11 11 10 10 11 12 12 12 12 12 12 13 13 13 14 13 13 15 15 13 13 12 12 12 12 12 12 12 11 11 12 13 10 9 9 8 7 6 6 6 6 7 6 6 6 6 5 6 6 6 7 7 6 6 6 6 6 5
4 1 3 1 3 1 2 2 2 2 1 5 6 4 4 4 4 5 5 6 6 6 8 7 10 11 11 11 11 11 10 9 11 11 11 12 12 12 13 13 13 14 14 14 14 15 13 13 14 13 13 12 15 13 13 12 12 12 13 11 10 10 9 8 7 7 7 7 7 8 7 7 7 7 6 6 6 6 6 7 7 6 6 6 5 5
1 3 2 2 3 1 1 1 3 3 4 4 4 5 4 5 5 5 6 6 6 7 7 8 10 11 11 11 11 10 9 11 12 11 11 11 11 11 11 12 12 12 13 13 14 15 13 13 13 13 14 14 15 14 13 13 12 14 12 10 10 10 10 9 8 8 8 7 7 8 7 6 6 7 7 7 5 6 6 6 6 6 5 5 5 5
2 5 2 2 3 4 3 5 2 4 2 5 3 3 5 5 6 6 6 6 7 8 8 8 9 10 11 10 10 11 11 11 12 11 11 10 10 11 11 11 12 12 13 13 13 14 13 13 12 14 14 14 14 13 13 13 12 12 11 11 12 11 11 9 9 8 7 6 5 5 5 6 5 5 6 6 5 5 5 5 5 5 5 5 5 4
2 4 3 1 1 4 3 3 4 6 1 3 1 1 5 8 8 6 6 6 8 8 8 9 10 9 9 9 10 11 11 11 11 11 10 10 10 10 11 11 12 12 11 11 11 12 11 11 12 12 12 11 12 11 11 11 11 11 12 11 11 10 9 7 7 6 5 5 4 4 5 5 7 5 4 5 5 4 5 5 4 4 4 4 4 4
4 6 2 2 2 3 1 2 8 4 4 4 6 4 4 8 9 8 7 8 9 9 9 9 8 9 9 10 10 10 11 10 10 10 10 10 10 9 10 10 11 11 11 11 11 11 10 10 10 11 10 9 9 9 8 9 8 9 9 9 8 9 8 6 6 5 5 5 5 5 5 5 5 4 3 3 3 4 4 4 4 3 4 4 3 3
2 1 2 2 3 3 1 2 8 3 3 3 4 8 9 12 8 8 8 9 9 9 9 11 10 9 9 8 9 9 10 10 10 10 10 9 9 11 11 11 10 10 10 9 8 9 10 10 9 10 9 8 8 8 7 8 8 8 8 9 8 8 8 8 6 6 6 6 6 6 5 5 5 5 4 4 3 3 3 4 7 6 4 2 7 9
1 1 2 2 3 1 4 4 3 4 9 10 9 9 11 10 6 8 8 10 9 9 9 11 13 12 10 9 8 8 9 10 11 10 10 9 9 9 10 10 11 10 9 9 9 9 9 9 8 7 7 6 6 6 6 6 7 7 8 9 8 8 8 8 6 5 5 6 6 7 6 5 5 5 4 4 4 3 3 2 3 7 8 7 8 8
Wind_Direction
323 215 210 232 245 202 202 214 247 8 50 351 277 270 266 269 270 202 258 219 136 282 259 256 257 264 265 263 269 265 255 259 262 264 262 259 258 256 260 265 261 254 263 268 254 269 272 262 249 245 236 230 219 193 188 199 209 211 205 197 211 210 200 210 205 197 189 187 200 203 210 211 203 204 205 205 212 223 235 242 237 235 230 231 227 227
254 235 239 240 269 324 245 231 246 81 20 263 271 265 265 245 266 217 241 176 193 232 274 274 275 267 266 264 261 269 257 253 259 257 255 257 256 252 251 256 262 269 266 261 264 248 254 251 241 238 238 228 226 220 202 210 204 198 198 203 206 193 200 206 206 198 198 197 195 190 195 189 189 180 186 105 48 50 46 32 34 34 8 330 272 235
215 237 273 347 351 77 91 220 217 236 232 227 253 264 269 263 254 259 249 244 236 225 271 282 276 276 273 261 258 260 256 253 249 251 251 253 255 256 254 252 257 260 263 263 263 255 247 253 244 235 231 228 227 228 210 209 193 187 197 205 205 198 194 202 202 197 198 183 134 163 118 124 85 44 74 95 79 62 73 55 43 19 22 46 40 11
278 177 20 352 165 153 130 157 173 194 222 233 225 241 248 250 246 295 109 338 236 219 278 33 306 283 275 252 250 250 244 248 237 240 251 248 252 253 252 250 250 255 262 266 265 264 255 238 248 233 222 225 220 223 228 214 209 196 205 200 194 198 198 190 198 185 100 83 78 64 82 83 98 113 60 84 90 77 62 52 46 50 27 20 41 43
264 78 336 125 135 181 178 164 174 195 233 209 223 239 258 239 232 244 316 356 256 251 252 290 285 279 255 243 252 250 232 244 245 242 247 250 251 257 262 265 259 260 258 260 266 263 258 250 239 233 219 212 214 215 218 213 209 196 206 200 194 190 194 188 184 158 121 111 80 86 79 95 95 82 93 76 63 80 81 70 30 33 43 35 36 26
261 223 129 266 215 200 212 209 202 213 265 237 214 222 238 266 281 246 291 323 290 281 210 230 296 268 269 187 220 253 202 237 236 233 242 245 246 246 253 251 244 242 241 250 254 255 256 253 251 233 210 210 216 219 217 212 212 212 215 203 195 192 190 185 178 156 149 145 138 137 133 134 120 121 133 128 132 124 105 99 107 61 32 43 50 44
288 93 204 234 224 222 225 246 180 184 257 263 271 196 232 249 261 240 242 220 268 267 41 182 255 289 285 209 203 202 238 253 226 221 242 230 241 241 242 247 240 233 236 236 244 252 253 251 246 240 221 213 221 225 213 201 207 205 207 191 194 193 193 187 169 162 152 150 156 162 163 159 153 135 102 102 98 115 108 113 111 109 93 75 68 61
168 215 219 240 232 228 233 238 189 194 237 255 94 146 202 226 226 222 223 222 250 329 35 130 236 274 287 279 202 168 232 252 259 253 247 210 230 237 238 239 245 241 233 237 239 244 249 248 243 242 223 211 218 213 185 205 202 198 193 184 188 191 185 187 182 169 165 157 160 148 129 130 134 115 134 136 122 111 129 117 107 101 88 66 64 69
163 165 205 221 215 225 232 226 157 193 212 288 84 174 178 218 228 216 213 228 245 263 262 220 217 263 252 267 120 170 229 228 254 253 261 250 224 232 242 244 246 245 237 229 234 237 239 238 233 232 233 207 193 183 195 197 194 182 169 168 175 180 179 177 192 195 181 161 154 142 126 118 102 109 115 114 114 113 108 96 90 87 91 83 62 50
284 236 261 265 233 238 215 165 177 181 228 139 111 94 93 103 136 187 219 222 235 222 247 229 208 242 263 263 198 174 234 229 240 250 250 248 248 227 238 240 238 248 248 240 239 243 245 243 239 229 221 184 189 178 179 173 168 173 167 164 166 168 172 171 182 196 204 180 151 141 139 127 129 123 123 129 125 126 126 109 101 90 84 84 83 64
176 231 176 261 232 258 6 130 186 200 209 95 142 156 145 194 167 171 221 216 211 233 234 226 215 210 265 257 252 219 225 213 248 242 239 252 250 241 236 244 242 239 242 238 235 239 244 245 231 213 220 203 173 170 175 172 174 173 172 165 158 148 144 156 173 181 189 178 208 163 149 143 142 150 141 132 130 139 131 120 122 116 101 92 96 100
216 254 228 229 221 175 208 213 187 228 175 187 227 243 280 244 171 203 211 205 234 247 227 227 223 208 236 258 263 248 224 253 254 259 252 239 241 245 238 228 241 247 247 249 244 243 239 228 218 206 208 191 179 174 177 173 169 172 171 165 151 145 145 143 143 147 152 172 129 335 295 148 149 149 149 145 147 152 137 131 124 122 114 110 100 87
228 222 218 217 174 198 218 242 210 164 183 211 215 225 244 260 241 251 190 226 215 232 221 225 209 239 236 252 273 277 251 239 253 247 266 259 248 248 251 249 228 235 247 252 247 237 223 221 209 203 204 186 181 183 180 173 170 169 169 167 153 146 145 139 141 137 127 120 110 100 340 13 133 148 148 147 145 152 141 142 137 135 126 119 95 81
258 204 197 217 164 205 211 227 222 204 204 206 209 216 225 244 239 249 238 243 257 237 235 251 210 242 243 237 239 253 252 248 262 256 240 250 261 266 260 252 244 229 248 253 248 238 229 219 213 206 198 191 186 181 175 171 169 167 169 167 154 145 145 141 137 130 126 120 108 103 80 62 78 90 110 107 132 140 135 139 136 134 132 123 118 114
290 279 208 154 239 169 207 220 234 245 206 205 208 207 220 219 210 246 216 232 235 271 171 200 202 234 196 234 201 237 253 248 238 253 253 243 250 257 263 309 275 244 233 234 241 242 233 221 211 202 197 194 189 180 173 169 168 161 165 164 151 144 146 143 136 133 130 122 122 126 128 117 89 94 91 90 85 86 98 103 116 118 118 115 114 107
237 252 42 172 7 164 194 223 235 250 256 222 209 209 231 232 230 247 268 276 294 285 257 188 218 254 245 342 37 273 97 109 235 249 263 262 250 252 260 260 254 240 232 222 232 236 231 215 200 194 186 179 172 174 171 171 162 155 149 145 146 141 141 136 132 129 128 126 125 124 123 114 110 107 103 102 102 103 103 94 88 95 103 106 110 102
226 243 80 327 355 260 226 351 251 225 233 221 192 223 231 268 253 263 263 263 284 262 248 232 261 243 274 272 264 273 273 191 205 228 250 255 261 250 250 260 260 242 224 213 220 221 219 208 202 194 184 176 169 164 164 163 162 154 140 134 130 128 129 130 127 125 124 124 124 124 122 122 118 114 113 111 107 108 102 97 93 92 87 91 94 96
273 265 341 316 302 277 259 282 269 272 267 300 241 229 256 32 306 247 259 258 247 250 256 234 249 254 253 268 214 230 249 256 205 188 246 284 291 279 256 257 268 276 246 235 232 228 213 202 196 187 182 177 171 165 155 146 136 135 134 138 132 131 127 124 126 125 128 127 125 125 125 125 122 120 117 116 115 113 108 103 104 103 96 86 82 86
49 299 234 216 245 264 32 345 265 249 243 244 253 46 235 214 217 210 239 246 246 248 257 244 254 258 253 253 261 265 261 255 223 166 216 255 265 258 264 262 270 288 284 247 237 228 211 200 192 185 176 171 164 157 150 141 136 134 127 127 131 130 127 125 122 122 120 121 120 122 123 122 120 118 117 116 115 114 107 101 96 97 101 103 100 97
10 270 297 171 223 173 0 279 253 254 249 249 287 255 218 269 260 269 231 263 247 261 263 257 246 254 240 250 253 256 254 264 272 274 254 252 268 274 266 282 270 261 248 237 227 223 219 209 196 184 174 168 163 155 148 143 140 140 135 129 122 117 118 120 118 119 115 112 112 115 113 108 111 112 114 118 116 106 102 103 104 105 102 102 98 96
267 275 277 205 109 317 285 265 226 297 324 304 294 277 261 245 321 286 283 257 255 266 254 267 259 255 253 332 267 255 260 270 308 339 343 340 327 322 347 316 309 280 253 230 224 212 204 199 189 177 169 156 146 141 143 146 146 141 136 133 134 134 134 129 127 123 120 118 115 116 113 114 110 107 105 103 99 100 99 101 104 103 107 102 93 96
284 262 261 282 270 257 260 301 168 298 241 287 277 272 284 296 287 252 255 214 220 242 254 260 261 263 284 12 13 8 30 22 11 357 349 346 329 316 318 324 299 280 246 232 215 203 196 193 184 169 149 143 143 149 149 147 142 142 142 141 138 133 132 133 130 127 125 119 119 114 112 108 103 103 103 101 97 98 100 100 100 107 104 100 96 92
257 292 308 277 263 272 284 280 309 299 291 264 258 267 276 270 268 268 273 261 259 252 268 258 276 241 59 14 41 33 27 29 21 356 351 343 331 325 318 318 305 283 271 243 218 204 193 183 174 165 157 154 152 150 146 143 144 144 141 139 139 137 132 127 124 121 118 118 116 112 110 106 101 101 100 98 98 98 97 96 97 97 101 100 100 93
83 286 267 269 272 282 283 271 256 266 249 271 249 240 253 259 263 286 309 320 309 303 294 283 251 277 99 6 73 39 24 27 16 10 352 343 349 339 327 320 313 291 278 257 227 213 190 171 153 148 153 154 152 148 148 144 139 134 134 134 132 128 126 121 121 121 117 112 107 106 102 99 103 100 96 94 91 94 92 94 92 92 92 94 93 91
306 275 104 268 299 277 261 230 186 141 92 234 302 315 329 298 315 279 258 270 263 233 256 266 263 270 348 312 85 11 355 18 5 2 1 349 348 346 333 325 321 307 291 252 208 180 154 153 163 162 156 155 148 146 143 140 136 134 130 126 120 117 117 116 115 113 110 111 108 103 101 100 98 97 92 91 91 90 90 88 89 84 86 92 89 90
286 274 287 289 283 278 268 262 271 259 335 313 313 292 280 284 300 313 279 265 252 228 218 234 257 262 281 291 289 330 354 352 359 16 7 360 349 344 338 324 326 321 322 293 150 147 149 162 181 182 168 135 138 136 132 128 126 122 118 111 109 116 116 112 110 108 107 105 103 101 99 99 95 93 95 96 93 92 89 89 87 90 84 88 94 91
239 280 256 256 260 263 271 284 303 313 296 297 294 294 291 281 271 262 267 266 262 278 278 277 291 304 302 297 305 344 339 347 344 349 2 1 5 359 355 351 347 354 3 27 43 95 135 164 169 168 158 115 116 115 117 118 113 109 107 102 92 94 98 100 105 103 101 97 97 96 91 88 84 88 89 88 93 95 93 90 90 91 91 88 90 91
255 258 241 243 253 261 271 276 281 280 276 277 283 283 290 286 273 267 253 257 283 319 291 284 336 320 299 302 308 316 331 339 352 359 357 360 7 5 9 28 36 42 37 41 55 73 161 162 157 152 139 103 107 98 86 83 85 91 93 90 78 76 81 78 91 87 85 87 83 83 82 77 78 78 78 81 82 83 84 85 84 83 84 84 83 84
261 270 259 258 254 258 263 269 272 273 270 270 271 272 271 279 280 267 265 264 267 260 272 309 318 304 301 297 301 333 2 358 25 11 9 8 10 14 21 25 27 32 38 39 42 68 125 133 138 134 117 99 89 88 84 82 77 72 73 75 81 81 67 68 79 77 74 71 74 76 79 80 73 74 77 79 80 78 76 75 74 76 77 77 80 79
242 257 257 237 256 256 259 266 274 271 268 265 264 265 268 270 275 275 275 277 271 268 273 277 284 283 277 295 5 21 17 36 24 16 20 20 14 13 19 23 20 18 21 20 19 24 39 50 60 71 80 81 79 74 77 80 79 81 85 82 77 76 69 76 74 79 73 70 70 73 77 78 76 76 74 72 74 75 77 77 75 73 75 77 78 81
221 259 260 260 264 256 238 249 257 261 263 264 262 264 265 266 273 276 276 272 266 261 260 260 261 268 271 37 19 28 35 25 28 23 19 18 17 15 16 17 17 16 12 12 12 10 9 19 29 42 56 68 74 80 79 76 78 76 73 68 69 69 68 81 84 80 78 74 68 68 71 75 75 76 72 72 75 75 80 81 83 82 81 82 82 83
217 269 300 280 275 268 258 254 261 265 270 268 265 263 262 261 265 275 273 266 266 269 269 266 264 264 330 353 72 37 41 35 28 20 15 15 16 16 16 12 11 11 10 5 4 7 7 4 7 10 8 18 73 94 92 92 88 81 79 75 75 77 70 76 81 81 78 75 70 63 64 71 77 77 75 75 75 79 80 87 90 91 89 88 83 76
256 265 264 261 261 263 269 269 269 273 273 262 249 250 256 261 266 267 265 265 266 297 278 266 276 24 341 357 46 41 37 37 35 25 12 8 11 17 17 14 9 8 10 5 1 2 1 358 355 355 358 359 354 59 107 106 95 89 95 92 94 94 84 79 78 78 74 69 70 66 63 68 76 78 75 70 72 73 75 78 76 71 70 68 65 71
251 251 258 256 258 270 278 274 274 268 253 248 303 252 248 248 251 255 263 286 39 15 297 1 22 15 359 12 44 47 47 48 40 29 28 17 4 6 11 12 10 7 8 8 2 0 355 353 352 349 351 349 344 11 92 99 103 106 108 111 112 102 93 88 78 77 74 68 62 61 61 59 62 67 67 68 68 68 64 62 58 53 54 57 58 66
245 247 253 248 256 265 271 254 254 246 251 303 278 283 322 309 309 288 82 46 22 19 3 348 7 6 353 347 354 23 77 76 52 34 22 19 14 10 6 6 7 6 6 8 4 358 354 350 349 349 350 354 342 7 85 85 97 106 98 99 91 83 86 81 80 71 66 62 55 52 52 56 56 56 55 56 60 62 59 55 51 46 39 38 39 43
245 241 245 246 251 263 258 247 250 253 317 315 295 48 342 2 8 94 109 51 24 21 2 344 349 350 352 343 343 329 324 318 62 50 24 13 16 9 5 4 3 3 4 5 4 359 354 350 348 347 343 346 352 6 51 77 90 94 89 76 75 73 69 71 69 64 59 57 49 46 42 47 53 52 49 49 56 59 56 53 48 43 32 37 44 45
234 243 236 256 230 246 245 250 253 293 289 276 273 33 14 356 356 353 263 103 25 13 7 348 342 349 349 343 334 323 314 305 241 68 26 9 6 9 5 2 2 1 0 358 359 2 359 352 350 349 345 356 11 11 14 29 56 74 74 65 57 58 56 57 57 50 49 49 44 42 38 36 43 47 45 43 47 50 48 46 46 45 28 41 41 47
226 219 227 230 231 213 242 252 256 256 258 276 82 32 26 358 314 288 292 160 45 9 2 356 346 350 346 342 337 326 306 260 216 29 8 1 359 1 1 2 0 0 359 355 353 356 4 359 354 354 354 359 14 12 9 19 43 55 56 53 49 52 51 51 48 41 42 42 38 38 38 36 37 41 42 41 39 36 35 34 37 35 24 34 29 39
263 229 245 232 254 232 224 232 247 257 263 50 1 347 344 334 312 291 285 236 55 354 351 355 346 354 354 347 336 332 323 216 146 20 357 351 351 358 357 356 357 357 357 356 355 350 358 2 357 356 358 7 15 3 4 19 36 52 52 47 48 50 51 45 38 32 32 34 34 36 37 37 39 40 40 43 40 37 33 29 27 21 20 24 29 34
28 312 267 238 234 237 251 254 253 257 231 22 331 331 328 322 314 257 256 237 28 347 338 354 347 354 351 348 341 350 14 354 352 338 345 343 345 352 357 351 352 353 354 356 354 354 350 2 2 5 8 8 4 356 2 14 35 47 49 46 46 47 44 36 30 28 31 34 33 36 40 40 43 44 43 41 43 42 42 37 36 30 30 32 30 29
5 327 290 278 299 289 278 265 263 149 105 3 326 322 319 299 275 200 236 30 330 327 335 353 344 353 354 343 356 346 356 340 321 325 336 339 343 348 354 350 350 349 352 354 354 354 352 0 12 10 7 3 359 360 3 17 35 44 43 44 46 40 31 22 20 24 29 32 37 41 43 42 42 47 46 40 37 45 48 39 36 33 37 39 37 36
239 328 234 246 297 300 321 283 274 72 67 309 303 319 312 315 205 235 50 230 260 310 345 344 345 355 354 340 334 330 320 322 322 333 336 343 343 342 349 347 346 348 351 355 356 358 355 356 4 8 7 8 6 6 8 20 42 44 41 43 41 29 16 12 16 21 28 33 35 37 39 41 38 43 46 37 37 52 56 46 41 36 36 37 34 36
327 306 295 315 325 269 221 274 287 269 78 358 316 274 360 291 25 290 297 316 323 340 334 342 342 353 352 331 326 323 322 321 331 335 336 339 345 343 350 349 350 351 350 351 354 357 359 355 0 3 7 3 8 10 11 21 37 37 38 41 29 14 9 7 15 21 27 31 35 37 36 38 38 38 37 32 35 46 49 37 37 35 38 36 38 39
25 266 281 222 300 307 274 255 264 29 324 356 6 44 26 23 11 336 344 318 350 339 343 329 340 342 346 330 326 321 320 324 329 335 335 339 343 341 346 349 346 348 349 351 352 351 354 357 357 357 4 7 10 15 14 18 26 30 37 31 11 5 2 7 11 16 27 30 32 30 29 26 32 34 33 31 31 41 45 35 31 36 35 30 31 31
24 355 353 258 46 257 285 355 51 162 45 35 53 73 63 21 18 345 341 321 325 342 338 330 328 336 332 333 321 318 316 329 327 330 335 336 339 339 343 346 345 346 349 349 350 351 353 359 354 354 0 8 10 14 17 17 21 23 30 15 7 5 6 6 13 24 26 29 28 30 27 32 29 25 26 26 33 41 44 40 36 43 34 36 36 38
90 315 287 273 269 131 155 83 96 122 120 102 75 56 39 19 351 353 337 330 335 333 333 323 329 324 328 327 325 316 321 325 327 328 335 337 337 336 339 340 340 341 346 348 350 353 349 356 356 359 359 5 9 10 14 15 17 20 12 3 5 5 4 4 10 21 26 27 26 29 23 21 31 36 32 30 35 46 53 58 53 55 45 45 45 43
354 3 329 219 338 334 271 124 54 347 264 196 131 68 54 32 354 343 330 327 330 326 325 321 320 319 317 328 315 318 318 326 325 327 331 334 334 335 339 337 337 338 345 348 349 349 349 359 359 359 359 1 5 7 9 10 13 11 4 2 2 2 0 4 11 16 19 14 18 21 31 38 30 28 25 24 28 37 48 60 63 63 64 60 54 46
130 17 312 185 343 241 317 102 328 320 298 105 101 32 10 358 352 340 324 326 321 320 315 319 320 313 322 317 324 317 318 322 323 327 331 330 331 330 334 334 332 333 340 344 345 350 349 357 0 356 359 359 360 1 6 8 7 2 1 359 358 357 355 3 7 9 13 13 18 29 27 37 38 34 42 32 30 31 61 58 50 59 64 64 57 48
330 320 227 15 268 289 277 138 359 322 142 133 101 72 10 349 337 330 329 325 322 317 317 316 319 310 317 314 319 319 314 318 320 324 322 324 322 326 327 328 326 328 334 340 345 346 350 349 356 356 356 356 355 354 3 3 3 357 1 358 354 353 353 356 358 8 18 19 24 29 31 36 41 35 28 36 54 56 60 45 15 31 71 61 66 7
235 173 3 282 268 255 290 36 2 324 260 184 243 1 354 344 337 326 323 323 322 321 323 320 316 316 311 315 317 316 316 314 320 318 320 318 318 319 321 322 323 325 329 337 340 341 346 349 354 352 351 351 350 349 355 355 1 359 2 359 354 357 355 355 354 11 19 19 22 22 26 33 35 36 26 28 28 48 74 67 41 46 61 59 12 1
11 37 337 261 276 280 52 316 326 296 285 281 298 327 336 329 335 328 326 318 319 320 322 321 318 320 320 321 322 311 314 315 314 321 313 314 314 317 317 318 319 325 327 335 338 343 346 345 345 346 346 347 348 343 351 354 359 359 1 2 357 0 356 357 4 19 19 18 24 16 10 24 29 28 31 32 27 20 29 48 54 47 45 39 14 21